TimeMST,TemperatureF,Dew PointF,Humidity,Sea Level PressureIn,VisibilityMPH,Wind Direction,Wind SpeedMPH,Gust SpeedMPH,PrecipitationIn,Events,Conditions,WindDirDegrees,DateUTC
12:12 AM,29.8,29.3,98,29.70,4.0,North,6.9,-,N/A,Snow,Light Snow,350,2013-02-24 07:12:00
12:31 AM,30.0,29.7,99,29.71,3.0,NNW,8.1,-,N/A,Snow,Light Snow,340,2013-02-24 07:31:00
12:51 AM,29.8,29.7,99,29.72,1.8,NNW,5.8,-,N/A,Snow,Light Snow,330,2013-02-24 07:51:00
1:11 AM,29.8,29.7,99,29.72,2.0,North,6.9,-,N/A,Snow,Light Snow,350,2013-02-24 08:11:00
1:31 AM,29.8,29.7,99,29.72,2.5,NNW,3.5,-,N/A,Snow,Light Snow,330,2013-02-24 08:31:00
1:51 AM,29.8,29.7,99,29.71,3.0,NNW,9.2,-,N/A,Snow,Light Snow,340,2013-02-24 08:51:00
2:11 AM,29.3,29.1,99,29.71,4.0,NNW,6.9,-,N/A,Snow,Light Snow,330,2013-02-24 09:11:00
2:31 AM,29.1,28.9,99,29.71,4.0,Calm,Calm,-,N/A,Snow,Light Snow,0,2013-02-24 09:31:00
2:51 AM,28.9,28.8,99,29.71,5.0,NNW,3.5,-,N/A,Snow,Light Snow,340,2013-02-24 09:51:00
3:12 AM,28.9,28.6,99,29.71,7.0,North,3.5,-,N/A,Snow,Light Snow,350,2013-02-24 10:12:00
3:31 AM,28.9,28.6,99,29.71,5.0,NNW,3.5,-,N/A,Snow,Light Snow,340,2013-02-24 10:31:00
3:51 AM,28.9,28.8,99,29.71,4.0,North,4.6,-,N/A,Snow,Light Snow,350,2013-02-24 10:51:00
4:12 AM,29.1,28.9,99,29.72,4.0,North,3.5,-,N/A,Snow,Light Snow,360,2013-02-24 11:12:00
4:32 AM,29.3,29.1,99,29.73,5.0,Calm,Calm,-,N/A,Snow,Light Snow,0,2013-02-24 11:32:00
4:52 AM,29.3,29.3,100,29.73,10.0,NNE,5.8,-,N/A,,Overcast,20,2013-02-24 11:52:00
5:11 AM,29.3,29.3,100,29.73,10.0,North,5.8,-,N/A,,Overcast,360,2013-02-24 12:11:00
5:32 AM,29.3,29.1,99,29.73,7.0,North,3.5,-,N/A,,Overcast,350,2013-02-24 12:32:00
5:51 AM,29.3,29.1,99,29.74,4.0,North,4.6,-,N/A,Snow,Light Snow,350,2013-02-24 12:51:00
6:12 AM,29.3,29.3,100,29.74,3.0,North,4.6,-,N/A,Snow,Light Snow,360,2013-02-24 13:12:00
6:32 AM,29.3,29.3,100,29.76,2.0,North,3.5,-,N/A,Snow,Light Snow,350,2013-02-24 13:32:00
6:52 AM,29.3,29.1,99,29.77,2.5,North,5.8,-,N/A,Snow,Light Snow,10,2013-02-24 13:52:00
7:12 AM,29.1,28.9,99,29.77,1.5,NNE,9.2,-,N/A,Snow,Light Snow,20,2013-02-24 14:12:00
7:31 AM,29.3,28.9,99,29.78,1.2,North,9.2,-,N/A,Snow,Light Snow,10,2013-02-24 14:31:00
7:51 AM,29.3,29.1,99,29.79,0.8,NNE,13.8,-,N/A,Snow,Light Snow,20,2013-02-24 14:51:00
8:12 AM,28.9,28.6,99,29.80,0.5,North,16.1,25.3,N/A,Snow,Snow,360,2013-02-24 15:12:00
8:32 AM,28.4,27.9,98,29.81,0.5,North,17.3,-,N/A,Snow,Snow,360,2013-02-24 15:32:00
8:52 AM,28.2,27.5,97,29.82,0.5,North,21.9,26.5,N/A,Snow,Snow,360,2013-02-24 15:52:00
9:12 AM,27.7,27.0,97,29.83,0.5,North,26.5,31.1,N/A,Snow,Snow,360,2013-02-24 16:12:00
9:32 AM,27.5,26.8,97,29.85,0.2,North,24.2,36.8,N/A,Snow,Snow,10,2013-02-24 16:32:00
9:51 AM,27.5,26.6,96,29.86,0.5,North,20.7,28.8,N/A,Snow,Snow,360,2013-02-24 16:51:00
10:11 AM,27.5,26.4,96,29.88,0.5,North,20.7,31.1,N/A,Snow,Snow,350,2013-02-24 17:11:00
10:33 AM,27.3,26.1,95,29.90,0.5,North,15.0,25.3,N/A,Snow,Snow,360,2013-02-24 17:33:00
10:52 AM,27.3,25.7,94,29.90,0.5,North,20.7,27.6,N/A,Snow,Snow,350,2013-02-24 17:52:00
11:12 AM,27.1,25.7,94,29.91,0.5,North,18.4,25.3,N/A,Snow,Snow,360,2013-02-24 18:12:00
11:32 AM,27.3,25.9,94,29.92,0.5,North,15.0,20.7,N/A,Snow,Light Snow,360,2013-02-24 18:32:00
11:52 AM,27.9,26.2,94,29.92,1.2,North,10.4,-,N/A,Snow,Light Snow,350,2013-02-24 18:52:00
12:12 PM,28.2,26.1,92,29.92,1.0,North,18.4,23.0,N/A,Snow,Light Snow,360,2013-02-24 19:12:00
12:31 PM,27.9,25.9,92,29.92,0.8,North,12.7,-,N/A,Snow,Light Snow,360,2013-02-24 19:31:00
12:52 PM,28.0,26.2,93,29.92,0.8,North,13.8,-,N/A,Snow,Light Snow,350,2013-02-24 19:52:00
1:12 PM,28.0,26.1,92,29.92,0.8,North,13.8,-,N/A,Snow,Light Snow,350,2013-02-24 20:12:00
1:22 PM,28.4,26.4,92,29.93,1.0,North,11.5,-,N/A,Snow,Light Snow,350,2013-02-24 20:22:00
1:50 PM,28.2,26.2,92,29.94,1.0,North,12.7,-,N/A,Snow,Light Snow,360,2013-02-24 20:50:00
2:10 PM,28.4,25.9,90,29.94,1.2,North,17.3,20.7,N/A,Snow,Light Snow,360,2013-02-24 21:10:00
2:31 PM,28.2,25.7,90,29.94,2.0,North,15.0,21.9,N/A,Snow,Light Snow,360,2013-02-24 21:31:00
2:50 PM,28.0,25.0,88,29.95,2.5,North,20.7,26.5,N/A,Snow,Light Snow,360,2013-02-24 21:50:00
3:11 PM,27.5,25.7,93,29.96,1.2,North,16.1,-,N/A,Snow,Light Snow,360,2013-02-24 22:11:00
3:32 PM,27.5,25.7,93,29.97,1.2,North,12.7,-,N/A,Snow,Light Snow,360,2013-02-24 22:32:00
3:52 PM,27.5,26.2,95,29.98,1.2,North,11.5,-,N/A,Snow,Light Snow,360,2013-02-24 22:52:00
4:11 PM,27.5,26.4,96,29.99,1.8,North,6.9,-,N/A,Snow,Light Snow,10,2013-02-24 23:11:00
4:32 PM,27.5,26.4,96,29.99,1.8,North,9.2,-,N/A,Snow,Light Snow,350,2013-02-24 23:32:00
4:51 PM,27.3,26.2,96,30.00,2.5,North,8.1,-,N/A,Snow,Light Snow,360,2013-02-24 23:51:00
5:11 PM,27.3,26.1,95,30.01,4.0,North,10.4,-,N/A,,Overcast,10,2013-02-25 00:11:00
5:31 PM,27.0,25.5,94,30.02,10.0,North,13.8,18.4,N/A,,Overcast,10,2013-02-25 00:31:00
5:51 PM,26.6,24.8,93,30.03,10.0,North,10.4,-,N/A,,Overcast,10,2013-02-25 00:51:00
6:11 PM,26.6,24.8,93,30.04,10.0,NNE,10.4,-,N/A,,Overcast,20,2013-02-25 01:11:00
6:31 PM,26.4,24.6,93,30.05,7.0,North,10.4,-,N/A,Snow,Light Snow,10,2013-02-25 01:31:00
6:50 PM,26.2,24.8,94,30.05,2.5,NNE,10.4,-,N/A,Snow,Light Snow,20,2013-02-25 01:50:00
7:09 PM,26.1,24.8,95,30.06,3.0,North,9.2,-,N/A,Snow,Light Snow,10,2013-02-25 02:09:00
7:31 PM,25.7,24.8,96,30.07,5.0,North,8.1,-,N/A,Snow,Light Snow,360,2013-02-25 02:31:00
7:51 PM,25.3,24.3,96,30.07,7.0,NNE,3.5,-,N/A,Snow,Light Snow,20,2013-02-25 02:51:00
8:11 PM,23.9,23.0,96,30.08,10.0,West,3.5,-,N/A,,Overcast,270,2013-02-25 03:11:00
8:26 PM,23.9,23.0,96,30.08,10.0,West,4.6,-,N/A,,Overcast,270,2013-02-25 03:26:00
8:51 PM,22.1,21.2,96,30.08,10.0,West,3.5,-,N/A,,Mostly Cloudy,270,2013-02-25 03:51:00
9:12 PM,17.4,16.5,96,30.08,10.0,Calm,Calm,-,N/A,,Mostly Cloudy,0,2013-02-25 04:12:00
9:32 PM,16.7,16.0,97,30.09,5.0,Calm,Calm,-,N/A,,Overcast,0,2013-02-25 04:32:00
9:51 PM,16.5,15.8,97,30.09,10.0,Calm,Calm,-,N/A,,Mostly Cloudy,0,2013-02-25 04:51:00
10:11 PM,15.6,14.5,95,30.09,10.0,Calm,Calm,-,N/A,,Scattered Clouds,0,2013-02-25 05:11:00
10:32 PM,14.7,13.6,95,30.08,10.0,Calm,Calm,-,N/A,,Clear,0,2013-02-25 05:32:00
10:47 PM,13.8,12.9,96,30.08,10.0,Calm,Calm,-,N/A,,Clear,0,2013-02-25 05:47:00
11:11 PM,11.1,9.5,93,30.07,10.0,Calm,Calm,-,N/A,,Scattered Clouds,0,2013-02-25 06:11:00
11:26 PM,13.1,12.0,95,30.07,10.0,Calm,Calm,-,N/A,,Mostly Cloudy,0,2013-02-25 06:26:00
11:51 PM,13.5,12.0,94,30.06,10.0,Calm,Calm,-,N/A,,Mostly Cloudy,0,2013-02-25 06:51:00